FW1665 Weather Reports


time (UTC)temp
C
wind
direction
speed
KPH
gust
KPH
rain 1hr
cm
rain 24hr
cm
rain mn
cm
humidity
%
barometer
mb
20260507002913 8 282 0.0 0.0 0.00 0.00 1.40 96 1012.0
20260507002403 8 0 0.0 0.0 0.00 0.00 1.40 96 1011.9
20260507001904 8 282 0.0 0.0 0.00 0.00 1.40 96 1011.9
20260507001404 8 282 0.0 3.2 0.00 0.00 1.40 96 1011.8
20260507000903 8 282 0.0 0.0 0.00 0.00 1.40 96 1011.8
20260507000405 8 282 0.0 0.0 0.00 0.00 1.40 97 1011.8
20260506235904 8 0 0.0 0.0 0.00 0.00 1.40 97 1011.8
20260506235403 8 0 0.0 0.0 0.00 0.00 1.40 97 1011.8
20260506234903 8 0 0.0 0.0 0.00 0.00 1.40 97 1011.8
20260506234403 8 282 0.0 0.0 0.00 0.00 1.40 97 1011.8
20260506233904 8 282 0.0 0.0 0.00 0.00 1.40 97 1011.8
20260506233403 8 282 0.0 0.0 0.00 0.00 1.40 97 1011.8
20260506232903 8 282 0.0 0.0 0.00 0.00 1.40 97 1011.7
20260506232414 8 282 0.0 0.0 0.00 0.00 1.40 97 1011.7
20260506231913 8 282 0.0 0.0 0.00 0.00 1.40 97 1011.7
20260506231403 8 282 0.0 0.0 0.00 0.00 1.40 97 1011.7
20260506230903 8 282 0.0 0.0 0.00 0.00 1.40 98 1011.7
20260506230404 8 282 0.0 0.0 0.00 0.00 1.40 98 1011.7
20260506225903 8 282 0.0 0.0 0.00 0.00 1.40 98 1011.6
20260506225403 7 282 0.0 0.0 0.00 0.00 1.40 98 1011.6
20260506224903 7 282 0.0 0.0 0.00 0.00 1.40 98 1011.5
20260506224414 7 282 0.0 0.0 0.00 0.00 1.40 98 1011.5
20260506223903 7 282 0.0 0.0 0.00 0.00 1.40 98 1011.5
20260506223403 7 282 0.0 1.6 0.00 0.00 1.40 98 1011.5
20260506222903 7 282 0.0 0.0 0.00 0.00 1.40 98 1011.5
20260506222404 7 282 0.0 0.0 0.00 0.00 1.40 98 1011.5
20260506221913 7 282 0.0 0.0 0.00 0.00 1.40 98 1011.4
20260506221403 7 282 0.0 0.0 0.00 0.00 1.40 98 1011.3
20260506220904 7 282 0.0 0.0 0.00 0.00 1.40 98 1011.3
20260506220403 7 282 0.0 0.0 0.00 0.00 1.40 98 1011.3
20260506215903 7 282 0.0 0.0 0.00 0.00 1.40 98 1011.3
20260506215403 7 282 0.0 0.0 0.00 0.00 1.40 99 1011.3
20260506214914 7 282 0.0 0.0 0.00 0.00 1.40 98 1011.3
20260506214403 7 282 0.0 0.0 0.00 0.00 1.40 99 1011.3
20260506213903 7 282 0.0 0.0 0.00 0.00 1.40 98 1011.3
20260506213403 7 282 0.0 0.0 0.00 0.00 1.40 98 1011.2
20260506212904 7 282 0.0 0.0 0.00 0.00 1.40 98 1011.3
20260506212403 7 282 0.0 0.0 0.00 0.00 1.40 98 1011.2
20260506211903 7 282 0.0 0.0 0.00 0.00 1.40 98 1011.2
20260506211403 7 282 0.0 0.0 0.00 0.00 1.40 98 1011.2
20260506210903 8 282 0.0 0.0 0.00 0.00 1.40 98 1011.2
20260506210403 8 282 0.0 0.0 0.00 0.00 1.40 98 1011.1
20260506205903 8 282 0.0 0.0 0.00 0.00 1.40 98 1011.1
20260506205404 8 282 0.0 0.0 0.00 0.00 1.40 98 1011.0
20260506204904 8 282 0.0 0.0 0.00 0.00 1.40 98 1011.0
20260506204403 8 282 0.0 0.0 0.00 0.00 1.40 97 1011.0
20260506203903 8 282 0.0 0.0 0.00 0.00 1.40 97 1011.0
20260506203414 8 282 0.0 0.0 0.00 0.00 1.40 97 1011.1
20260506202903 8 282 0.0 0.0 0.00 0.00 1.40 97 1011.1
20260506202403 8 282 0.0 0.0 0.00 0.00 1.40 97 1011.0
20260506201903 8 282 0.0 0.0 0.00 0.00 1.40 97 1011.0
20260506201404 8 282 0.0 0.0 0.00 0.00 1.40 97 1010.9
20260506200903 8 282 0.0 0.0 0.00 0.00 1.40 97 1011.0
20260506200403 8 279 0.0 0.0 0.00 0.00 1.40 97 1010.9
20260506195914 8 278 0.0 0.0 0.00 0.00 1.40 97 1010.9
20260506195403 9 276 0.0 1.6 0.00 0.00 1.40 97 1010.8
20260506194903 8 276 0.0 0.0 0.00 0.00 1.40 97 1010.7
20260506194403 8 260 0.0 3.2 0.00 0.00 1.40 98 1010.6
20260506193904 8 242 0.0 3.2 0.00 0.00 1.40 98 1010.6
20260506193403 8 123 1.6 3.2 0.00 0.00 1.40 98 1010.5
20260506192903 8 48 0.0 0.0 0.00 0.00 1.40 98 1010.5
20260506192414 9 48 0.0 0.0 0.00 0.00 1.40 98 1010.5
20260506191903 9 48 1.6 3.2 0.00 0.00 1.40 98 1010.4
20260506191403 9 48 0.0 0.0 0.00 0.00 1.40 98 1010.4
20260506190903 9 48 0.0 0.0 0.00 0.00 1.40 98 1010.4
20260506190404 9 48 1.6 1.6 0.00 0.00 1.40 98 1010.3
20260506185904 9 48 0.0 3.2 0.00 0.00 1.40 98 1010.3
20260506185413 9 48 1.6 3.2 0.00 0.00 1.40 98 1010.2
20260506184903 9 48 0.0 3.2 0.00 0.00 1.40 98 1010.2
20260506184404 9 48 0.0 0.0 0.00 0.00 1.40 98 1010.1
20260506183903 9 48 3.2 3.2 0.00 0.00 1.40 98 1010.0
20260506183403 9 48 1.6 3.2 0.00 0.00 1.40 98 1010.0
20260506182903 8 48 0.0 3.2 0.00 0.00 1.40 98 1010.0
20260506182404 8 48 0.0 3.2 0.00 0.00 1.40 99 1009.9
20260506181903 9 48 0.0 0.0 0.00 0.00 1.40 98 1009.8
20260506181403 9 119 0.0 3.2 0.00 0.00 1.40 98 1009.8
20260506180914 9 324 0.0 0.0 0.00 0.00 1.40 98 1009.8
20260506180404 9 324 0.0 3.2 0.00 0.00 1.40 98 1009.7
20260506175903 9 321 0.0 4.8 0.00 0.00 1.40 98 1009.7
20260506175403 9 292 1.6 3.2 0.00 0.00 1.40 98 1009.6
20260506174904 9 227 1.6 4.8 0.00 0.00 1.40 97 1009.5
20260506174403 9 246 1.6 3.2 0.00 0.00 1.40 97 1009.5
20260506173913 9 354 0.0 0.0 0.00 0.00 1.40 96 1009.4
20260506173413 9 354 1.6 4.8 0.00 0.00 1.40 96 1009.3
20260506172914 9 264 0.0 3.2 0.00 0.00 1.40 96 1009.3
20260506172403 9 334 1.6 6.4 0.00 0.00 1.40 96 1009.3
20260506171913 9 233 1.6 3.2 0.00 0.00 1.40 96 1009.2
20260506171403 9 200 0.0 3.2 0.00 0.00 1.40 96 1009.1
20260506170904 9 250 1.6 3.2 0.00 0.00 1.40 96 1009.0
20260506170403 9 249 0.0 3.2 0.00 0.00 1.40 96 1009.0
20260506165903 9 250 0.0 0.0 0.00 0.00 1.40 96 1009.0
20260506165404 9 249 0.0 3.2 0.00 0.00 1.40 96 1009.0
20260506164903 9 250 0.0 3.2 0.00 0.00 1.40 96 1009.0
20260506164403 9 208 1.6 4.8 0.00 0.00 1.40 96 1009.0
20260506163913 9 192 1.6 3.2 0.00 0.00 1.40 96 1008.9
20260506163404 9 233 0.0 3.2 0.00 0.00 1.40 96 1008.9
20260506162904 9 294 0.0 3.2 0.00 0.00 1.40 96 1008.9
20260506162403 9 263 1.6 4.8 0.00 0.00 1.40 96 1008.9
20260506161903 9 320 0.0 4.8 0.00 0.00 1.40 96 1009.0
20260506161404 9 324 0.0 4.8 0.00 0.00 1.40 96 1008.9
20260506160903 9 324 0.0 3.2 0.00 0.00 1.40 96 1008.9
20260506160403 9 324 0.0 1.6 0.00 0.00 1.40 97 1008.9
20260506155903 9 325 1.6 6.4 0.00 0.00 1.40 96 1008.9
20260506155403 9 326 1.6 3.2 0.00 0.00 1.40 96 1008.9
20260506154903 9 326 1.6 3.2 0.00 0.00 1.40 97 1008.8
20260506154403 9 278 1.6 9.7 0.00 0.00 1.40 97 1008.8
20260506153904 9 171 3.2 9.7 0.00 0.00 1.40 97 1008.8
20260506153403 9 316 1.6 6.4 0.00 0.00 1.40 97 1008.8
20260506152903 9 311 1.6 4.8 0.00 0.00 1.40 97 1008.8
20260506152403 9 304 1.6 4.8 0.00 0.00 1.40 97 1008.8
20260506151904 9 303 0.0 4.8 0.00 0.00 1.40 97 1008.8
20260506151404 9 291 1.6 3.2 0.00 0.00 1.40 97 1008.7
20260506150903 9 315 1.6 3.2 0.00 0.00 1.40 97 1008.7
20260506150403 9 274 3.2 9.7 0.00 0.00 1.40 97 1008.7
20260506145904 9 312 1.6 4.8 0.00 0.00 1.40 97 1008.7
20260506145403 9 335 1.6 3.2 0.00 0.00 1.40 97 1008.7
20260506144903 9 329 1.6 4.8 0.00 0.00 1.40 97 1008.7
20260506144403 9 279 0.0 3.2 0.00 0.00 1.40 97 1008.7
20260506143903 10 281 0.0 3.2 0.00 0.00 1.40 96 1008.6
20260506143403 10 296 1.6 4.8 0.00 0.00 1.40 96 1008.6
20260506142913 10 310 1.6 4.8 0.00 0.00 1.40 97 1008.6
20260506142404 10 247 1.6 6.4 0.00 0.00 1.40 97 1008.6
20260506141903 10 271 1.6 4.8 0.00 0.00 1.40 96 1008.5
20260506141403 10 263 1.6 6.4 0.00 0.00 1.40 96 1008.5
20260506140903 10 230 1.6 3.2 0.00 0.00 1.40 96 1008.5
20260506140404 10 281 0.0 3.2 0.00 0.00 1.40 96 1008.5
20260506135903 10 260 1.6 6.4 0.05 0.00 1.40 96 1008.4
20260506135403 10 179 1.6 3.2 0.05 0.00 1.40 96 1008.4
20260506134904 10 171 3.2 4.8 0.05 0.00 1.40 96 1008.4
20260506134403 10 138 0.0 3.2 0.05 0.00 1.40 97 1008.5
20260506133903 9 267 1.6 3.2 0.05 0.00 1.40 98 1008.5
20260506133413 9 316 0.0 3.2 0.05 0.00 1.40 98 1008.4
20260506132904 9 296 1.6 4.8 0.05 0.00 1.40 98 1008.4
20260506132403 9 163 1.6 8.0 0.05 0.00 1.40 98 1008.5
20260506131903 9 171 0.0 6.4 0.05 0.00 1.40 97 1008.5
20260506131404 9 264 3.2 8.0 0.05 0.00 1.40 97 1008.4
20260506130913 9 226 3.2 6.4 0.05 0.00 1.40 97 1008.4
20260506130403 9 54 0.0 0.0 0.05 0.00 1.40 97 1008.3
20260506125903 9 54 0.0 3.2 0.00 0.00 1.37 97 1008.3
20260506125404 9 54 0.0 3.2 0.00 0.00 1.37 97 1008.2
20260506124903 9 97 1.6 6.4 0.05 0.00 1.37 96 1008.2
20260506124403 9 234 0.0 3.2 0.05 0.00 1.37 96 1008.2
20260506123904 9 226 1.6 3.2 0.05 0.00 1.37 97 1008.2
20260506123404 9 54 1.6 4.8 0.05 0.00 1.37 97 1008.2
20260506122903 9 54 1.6 4.8 0.05 0.00 1.37 97 1008.2
20260506122403 9 43 1.6 3.2 0.05 0.00 1.37 96 1008.1
20260506121904 9 70 1.6 3.2 0.05 0.00 1.37 97 1008.0
20260506121403 9 310 1.6 6.4 0.05 0.00 1.37 97 1008.0
20260506120903 9 154 1.6 3.2 0.05 0.00 1.37 97 1008.0
20260506120414 9 48 1.6 4.8 0.05 0.00 1.37 97 1008.0
20260506115903 9 68 1.6 4.8 0.05 0.00 1.37 97 1008.0
20260506115403 9 36 1.6 3.2 0.05 0.00 1.37 97 1007.9
20260506114903 9 36 0.0 3.2 0.00 0.00 1.32 97 1007.8
20260506114413 9 59 0.0 3.2 0.00 0.00 1.32 97 1007.8
20260506113904 9 72 3.2 8.0 0.05 0.00 1.32 96 1007.9
20260506113403 9 207 3.2 6.4 0.05 0.00 1.32 96 1007.9
20260506112904 9 101 3.2 6.4 0.05 0.00 1.32 96 1007.8
20260506112403 9 69 3.2 9.7 0.05 0.00 1.32 96 1007.8
20260506111903 8 280 3.2 4.8 0.05 0.00 1.32 97 1007.8
20260506111403 8 324 1.6 6.4 0.05 0.00 1.32 97 1007.8
20260506110903 8 319 1.6 8.0 0.05 0.00 1.32 97 1007.8
20260506110403 8 295 3.2 6.4 0.05 0.00 1.32 97 1007.8
20260506105903 9 180 0.0 4.8 0.08 0.00 1.32 98 1007.8
20260506105404 8 107 1.6 6.4 0.08 0.00 1.32 97 1007.8
20260506104903 9 66 1.6 3.2 0.08 0.00 1.32 97 1007.8
20260506104403 8 116 1.6 3.2 0.08 0.00 1.32 97 1007.7
20260506103904 8 113 1.6 4.8 0.08 0.00 1.27 98 1007.8
20260506103413 8 220 3.2 6.4 0.08 0.00 1.27 98 1007.7
20260506102903 8 274 1.6 6.4 0.08 0.00 1.27 98 1007.7
20260506102403 8 174 3.2 9.7 0.08 0.00 1.27 98 1007.6
20260506101904 9 247 3.2 6.4 0.08 0.00 1.27 98 1007.6
20260506101403 9 192 3.2 9.7 0.13 0.00 1.27 97 1007.5
20260506100903 9 132 3.2 6.4 0.13 0.00 1.27 97 1007.3
20260506100404 9 290 3.2 6.4 0.13 0.00 1.27 98 1007.3
20260506095903 9 330 0.0 3.2 0.08 0.00 1.24 98 1007.2
20260506095403 9 220 3.2 9.7 0.08 0.00 1.24 98 1007.2
20260506094903 9 44 1.6 3.2 0.08 0.00 1.24 98 1007.2
20260506094404 9 203 1.6 4.8 0.08 0.00 1.24 98 1007.1
20260506093903 9 264 1.6 4.8 0.05 0.00 1.19 98 1007.0
20260506093403 9 180 1.6 4.8 0.05 0.00 1.19 98 1007.0
20260506092904 9 337 1.6 6.4 0.08 0.00 1.19 98 1007.0
20260506092403 9 80 1.6 4.8 0.08 0.00 1.19 98 1006.9
20260506091903 10 94 1.6 9.7 0.08 0.00 1.19 98 1006.9
20260506091403 10 329 3.2 8.0 0.05 0.00 1.17 98 1006.8
20260506090904 10 323 1.6 3.2 0.05 0.00 1.17 98 1006.8
20260506090403 10 272 1.6 4.8 0.05 0.00 1.17 98 1006.8
20260506085903 10 213 1.6 3.2 0.05 0.00 1.17 98 1006.7
20260506085404 10 301 1.6 4.8 0.05 0.00 1.17 99 1006.8
20260506084903 10 302 3.2 6.4 0.08 0.00 1.17 99 1006.7
20260506084403 10 320 3.2 6.4 0.08 0.00 1.17 99 1006.6
20260506083903 10 270 3.2 6.4 0.08 0.00 1.17 99 1006.6
20260506083404 10 163 1.6 4.8 0.08 0.00 1.17 99 1006.5
20260506082908 10 154 1.6 4.8 0.05 0.00 1.12 99 1006.5
20260506082413 10 304 1.6 6.4 0.08 0.00 1.12 99 1006.5
20260506081904 9 304 3.2 9.7 0.08 0.00 1.12 99 1006.5
20260506081403 10 247 1.6 4.8 0.08 0.00 1.12 99 1006.5
20260506080903 9 187 1.6 4.8 0.13 0.00 1.12 99 1006.4
20260506080403 9 74 1.6 4.8 0.13 0.00 1.12 99 1006.5
20260506073403 9 197 3.2 6.4 0.15 0.00 1.09 99 1006.4
20260506072914 9 309 1.6 6.4 0.15 0.00 1.09 99 1006.4
20260506072403 9 312 1.6 3.2 0.15 0.00 1.04 99 1006.4
20260506071913 9 312 1.6 4.8 0.15 0.00 1.04 99 1006.4
20260506071413 9 312 1.6 4.8 0.15 0.00 1.04 99 1006.4
20260506070903 9 312 0.0 3.2 0.13 0.00 0.99 99 1006.4
20260506070403 9 249 3.2 8.0 0.13 0.00 0.99 99 1006.4
20260506062403 9 327 1.6 4.8 0.13 0.00 0.89 99 1006.2
20260506061904 9 336 0.0 3.2 0.13 0.00 0.89 99 1006.2
20260506061403 9 184 1.6 3.2 0.13 0.00 0.89 99 1006.2
20260506060903 9 313 3.2 9.7 0.13 0.00 0.89 99 1006.1
20260506060404 9 259 3.2 4.8 0.13 0.00 0.89 99 1006.1
20260506051404 9 68 0.0 3.2 0.08 0.00 0.76 99 1006.0
20260506050914 9 192 1.6 3.2 0.08 0.00 0.76 99 1006.0
20260506050403 9 329 1.6 3.2 0.08 0.00 0.76 99 1005.9
20260506044903 9 252 1.6 6.4 0.08 0.00 0.71 99 1005.9
20260506044403 9 83 1.6 3.2 0.08 0.00 0.71 99 1005.9
20260506043903 9 60 0.0 3.2 0.13 0.00 0.71 99 1005.9
20260506043404 9 85 1.6 4.8 0.08 0.00 0.69 99 1005.8
20260506042903 9 120 3.2 6.4 0.13 0.00 0.69 99 1005.9
20260506042413 9 317 1.6 3.2 0.13 0.00 0.69 99 1005.9
20260506041903 9 306 1.6 3.2 0.13 0.00 0.69 99 1005.9
20260506041404 9 191 1.6 6.4 0.15 0.00 0.69 99 1005.9
20260506040903 9 97 1.6 4.8 0.15 0.00 0.69 99 1005.8
20260506040413 9 340 1.6 4.8 0.15 0.00 0.69 99 1005.9
20260506035904 9 346 1.6 4.8 0.15 0.00 0.64 99 1005.9
20260506035403 9 196 1.6 6.4 0.15 0.00 0.64 99 1005.9
20260506034903 9 161 1.6 4.8 0.20 0.00 0.64 99 1005.9
20260506034413 9 292 1.6 4.8 0.15 0.00 0.61 99 1005.9
20260506033904 9 304 1.6 3.2 0.15 0.00 0.61 99 1006.0
20260506033404 9 312 0.0 4.8 0.15 0.00 0.61 99 1006.0
20260506032903 8 310 0.0 3.2 0.15 0.00 0.56 99 1006.0
20260506032403 8 156 1.6 6.4 0.15 0.00 0.56 99 1006.0
20260506031904 9 148 0.0 1.6 0.15 0.00 0.56 99 1006.1
20260506031403 8 113 1.6 3.2 0.15 0.00 0.51 99 1006.1
20260506030903 8 328 3.2 8.0 0.15 0.00 0.51 99 1006.1
20260506030403 8 341 0.0 3.2 0.20 0.00 0.51 99 1006.2
20260506025904 8 267 3.2 4.8 0.20 0.00 0.48 99 1006.3
20260506025403 8 162 1.6 3.2 0.20 0.00 0.48 99 1006.3
20260506024903 8 110 1.6 3.2 0.15 0.00 0.43 99 1006.3
20260506024404 8 138 1.6 3.2 0.20 0.00 0.43 99 1006.3
20260506023904 8 321 1.6 3.2 0.20 0.00 0.43 99 1006.3
20260506023403 8 87 0.0 3.2 0.20 0.00 0.43 99 1006.4
20260506022903 8 27 0.0 3.2 0.15 0.00 0.41 99 1006.4
20260506022404 8 31 1.6 3.2 0.20 0.00 0.41 99 1006.4
20260506021903 8 35 1.6 3.2 0.20 0.00 0.41 99 1006.4
20260506021403 8 90 0.0 3.2 0.15 0.00 0.36 99 1006.4
20260506020903 8 333 3.2 6.4 0.15 0.00 0.33 99 1006.5
20260506020404 8 290 1.6 4.8 0.15 0.00 0.33 99 1006.5
20260506015903 8 155 0.0 3.2 0.13 0.00 0.28 99 1006.5
20260506015403 8 85 1.6 3.2 0.13 0.00 0.28 99 1006.5
20260506014904 8 89 1.6 3.2 0.15 0.00 0.28 99 1006.5
20260506014403 9 325 0.0 3.2 0.13 0.00 0.23 99 1006.5
20260506013903 9 315 1.6 6.4 0.13 0.00 0.23 99 1006.6
20260506013403 9 212 0.0 3.2 0.13 0.00 0.23 99 1006.6
20260506012903 9 12 1.6 3.2 0.13 0.00 0.23 99 1006.7
20260506012403 9 221 1.6 6.4 0.08 0.00 0.20 99 1006.7
20260506011903 9 262 0.0 3.2 0.08 0.00 0.20 99 1006.6
20260506011404 9 260 0.0 3.2 0.13 0.00 0.20 99 1006.7
20260506010903 9 256 1.6 3.2 0.08 0.00 0.15 99 1006.7
20260506010403 9 311 1.6 6.4 0.08 0.00 0.15 99 1006.7
20260506005904 9 327 0.0 4.8 0.08 0.00 0.15 99 1006.8
20260506005403 9 328 1.6 3.2 0.08 0.00 0.15 99 1006.8
20260506004903 9 318 0.0 4.8 0.05 0.00 0.13 99 1006.8
20260506004403 9 322 1.6 4.8 0.05 0.00 0.13 99 1006.9
20260506003904 9 306 1.6 3.2 0.05 0.00 0.13 99 1006.9
20260506003403 9 303 1.6 4.8 0.05 0.00 0.13 99 1006.9